TimeEDT,TemperatureF,Dew PointF,Humidity,Sea Level PressureIn,VisibilityMPH,Wind Direction,Wind SpeedMPH,Gust SpeedMPH,PrecipitationIn,Events,Conditions,WindDirDegrees,DateUTC
12:15 AM,78.8,75.2,89,29.96,6.0,Calm,Calm,-,N/A,,Mostly Cloudy,0,2013-06-15 04:15:00
12:35 AM,78.8,75.2,89,29.96,5.0,Calm,Calm,-,N/A,,Scattered Clouds,0,2013-06-15 04:35:00
12:55 AM,78.8,75.2,89,29.96,5.0,Calm,Calm,-,N/A,,Mostly Cloudy,0,2013-06-15 04:55:00
1:15 AM,77.0,75.2,94,29.96,5.0,Calm,Calm,-,N/A,,Mostly Cloudy,0,2013-06-15 05:15:00
1:35 AM,77.0,75.2,94,29.96,5.0,Calm,Calm,-,N/A,,Partly Cloudy,0,2013-06-15 05:35:00
1:55 AM,78.8,73.4,83,29.96,5.0,Calm,Calm,-,N/A,,Mostly Cloudy,0,2013-06-15 05:55:00
2:15 AM,78.8,73.4,83,29.96,5.0,Calm,Calm,-,N/A,,Overcast,0,2013-06-15 06:15:00
2:35 AM,78.8,75.2,89,29.95,6.0,Calm,Calm,-,N/A,,Overcast,0,2013-06-15 06:35:00
2:55 AM,78.8,75.2,89,29.95,5.0,Calm,Calm,-,N/A,,Overcast,0,2013-06-15 06:55:00
3:15 AM,77.0,75.2,94,29.94,5.0,Calm,Calm,-,N/A,,Overcast,0,2013-06-15 07:15:00
3:35 AM,75.2,73.4,94,29.95,2.0,Calm,Calm,-,0.07,,Overcast,0,2013-06-15 07:35:00
3:55 AM,75.2,73.4,94,29.96,1.8,NNE,3.5,-,0.17,,Overcast,20,2013-06-15 07:55:00
4:15 AM,75.2,73.4,94,29.96,3.0,Calm,Calm,-,0.01,,Overcast,0,2013-06-15 08:15:00
4:35 AM,75.2,73.4,94,29.96,6.0,Calm,Calm,-,0.01,,Mostly Cloudy,0,2013-06-15 08:35:00
4:55 AM,75.2,73.4,94,29.96,5.0,Calm,Calm,-,0.01,,Clear,0,2013-06-15 08:55:00
5:15 AM,75.2,73.4,94,29.98,8.0,Calm,Calm,-,N/A,,Partly Cloudy,0,2013-06-15 09:15:00
5:35 AM,75.2,73.4,94,29.99,7.0,Calm,Calm,-,N/A,,Mostly Cloudy,0,2013-06-15 09:35:00
5:55 AM,75.2,73.4,94,29.99,7.0,Calm,Calm,-,N/A,,Mostly Cloudy,0,2013-06-15 09:55:00
6:15 AM,75.2,73.4,94,30.00,7.0,Calm,Calm,-,N/A,,Overcast,0,2013-06-15 10:15:00
6:35 AM,75.2,71.6,89,30.01,7.0,ENE,3.5,-,N/A,,Mostly Cloudy,70,2013-06-15 10:35:00
6:55 AM,75.2,71.6,89,30.01,8.0,Calm,Calm,-,N/A,,Mostly Cloudy,0,2013-06-15 10:55:00
7:15 AM,75.2,71.6,89,30.01,7.0,Calm,Calm,-,N/A,,Mostly Cloudy,0,2013-06-15 11:15:00
7:35 AM,75.2,71.6,89,30.01,8.0,Calm,Calm,-,N/A,,Mostly Cloudy,0,2013-06-15 11:35:00
7:55 AM,77.0,71.6,83,30.02,8.0,Calm,Calm,-,N/A,,Scattered Clouds,0,2013-06-15 11:55:00
8:15 AM,77.0,71.6,83,30.03,8.0,Calm,Calm,-,N/A,,Partly Cloudy,0,2013-06-15 12:15:00
8:35 AM,78.8,71.6,78,30.04,8.0,Calm,Calm,-,N/A,,Mostly Cloudy,0,2013-06-15 12:35:00
8:55 AM,78.8,71.6,78,30.04,8.0,Calm,Calm,-,N/A,,Mostly Cloudy,0,2013-06-15 12:55:00
9:15 AM,80.6,71.6,74,30.05,8.0,East,4.6,-,N/A,,Mostly Cloudy,80,2013-06-15 13:15:00
9:35 AM,80.6,73.4,79,30.05,8.0,East,3.5,-,N/A,,Mostly Cloudy,90,2013-06-15 13:35:00
9:55 AM,82.4,73.4,74,30.05,8.0,East,11.5,17.3,N/A,,Scattered Clouds,90,2013-06-15 13:55:00
10:15 AM,82.4,73.4,74,30.06,8.0,East,8.1,-,N/A,,Scattered Clouds,90,2013-06-15 14:15:00
10:35 AM,82.4,73.4,74,30.06,8.0,East,11.5,-,N/A,,Scattered Clouds,90,2013-06-15 14:35:00
10:55 AM,82.4,71.6,70,30.06,9.0,East,15.0,23.0,N/A,,Mostly Cloudy,80,2013-06-15 14:55:00
11:15 AM,84.2,73.4,70,30.07,8.0,East,13.8,-,N/A,,Mostly Cloudy,90,2013-06-15 15:15:00
11:35 AM,84.2,71.6,66,30.07,8.0,ENE,10.4,-,N/A,,Overcast,70,2013-06-15 15:35:00
11:55 AM,84.2,71.6,66,30.08,8.0,East,11.5,-,N/A,,Mostly Cloudy,80,2013-06-15 15:55:00
12:15 PM,82.4,71.6,70,30.08,9.0,East,12.7,-,N/A,,Mostly Cloudy,80,2013-06-15 16:15:00
12:35 PM,84.2,71.6,66,30.08,8.0,East,11.5,18.4,N/A,,Scattered Clouds,80,2013-06-15 16:35:00
12:55 PM,84.2,71.6,66,30.07,9.0,East,12.7,18.4,N/A,,Scattered Clouds,90,2013-06-15 16:55:00
1:15 PM,84.2,69.8,62,30.07,8.0,East,13.8,19.6,N/A,,Scattered Clouds,90,2013-06-15 17:15:00
1:35 PM,84.2,69.8,62,30.07,8.0,East,11.5,-,N/A,,Scattered Clouds,90,2013-06-15 17:35:00
1:55 PM,84.2,71.6,66,30.06,9.0,ENE,12.7,-,N/A,,Partly Cloudy,70,2013-06-15 17:55:00
2:15 PM,84.2,69.8,62,30.06,8.0,East,10.4,17.3,N/A,,Partly Cloudy,80,2013-06-15 18:15:00
2:35 PM,84.2,71.6,66,30.06,7.0,East,13.8,-,N/A,,Partly Cloudy,80,2013-06-15 18:35:00
2:55 PM,84.2,73.4,70,30.06,8.0,East,12.7,-,N/A,,Clear,80,2013-06-15 18:55:00
3:15 PM,84.2,73.4,70,30.05,8.0,ENE,11.5,-,N/A,,Partly Cloudy,70,2013-06-15 19:15:00
3:35 PM,86.0,73.4,66,30.05,8.0,ENE,16.1,21.9,N/A,,Scattered Clouds,60,2013-06-15 19:35:00
3:55 PM,84.2,71.6,66,30.05,8.0,ENE,13.8,17.3,N/A,,Mostly Cloudy,70,2013-06-15 19:55:00
4:15 PM,82.4,71.6,70,30.06,9.0,ENE,11.5,17.3,N/A,,Overcast,60,2013-06-15 20:15:00
4:35 PM,82.4,69.8,66,30.06,10.0,ENE,13.8,20.7,N/A,,Mostly Cloudy,70,2013-06-15 20:35:00
4:55 PM,82.4,69.8,66,30.06,8.0,East,16.1,19.6,N/A,,Overcast,80,2013-06-15 20:55:00
5:15 PM,82.4,69.8,66,30.07,9.0,East,12.7,-,N/A,,Mostly Cloudy,80,2013-06-15 21:15:00
5:35 PM,82.4,69.8,66,30.05,9.0,ENE,13.8,-,N/A,,Partly Cloudy,70,2013-06-15 21:35:00
5:55 PM,82.4,69.8,66,30.05,8.0,East,12.7,20.7,N/A,,Partly Cloudy,80,2013-06-15 21:55:00
6:15 PM,82.4,69.8,66,30.06,9.0,East,9.2,-,N/A,,Clear,90,2013-06-15 22:15:00
6:35 PM,82.4,69.8,66,30.06,9.0,East,15.0,20.7,N/A,,Clear,90,2013-06-15 22:35:00
6:55 PM,80.6,69.8,70,30.07,8.0,East,12.7,-,N/A,,Clear,80,2013-06-15 22:55:00
7:15 PM,80.6,69.8,70,30.08,9.0,East,9.2,-,N/A,,Clear,80,2013-06-15 23:15:00
7:35 PM,80.6,69.8,70,30.08,9.0,East,10.4,-,N/A,,Mostly Cloudy,90,2013-06-15 23:35:00
7:55 PM,80.6,69.8,70,30.08,9.0,East,6.9,-,N/A,,Partly Cloudy,90,2013-06-15 23:55:00
8:15 PM,78.8,69.8,74,30.09,9.0,Calm,Calm,-,N/A,,Scattered Clouds,0,2013-06-16 00:15:00
8:35 PM,78.8,69.8,74,30.09,9.0,Calm,Calm,-,N/A,,Partly Cloudy,0,2013-06-16 00:35:00
8:55 PM,78.8,69.8,74,30.09,9.0,Calm,Calm,-,N/A,,Partly Cloudy,0,2013-06-16 00:55:00
9:15 PM,78.8,69.8,74,30.09,9.0,Calm,Calm,-,N/A,,Scattered Clouds,0,2013-06-16 01:15:00
9:35 PM,77.0,69.8,78,30.10,8.0,Calm,Calm,-,N/A,,Scattered Clouds,0,2013-06-16 01:35:00
10:15 PM,77.0,69.8,78,30.10,10.0,Calm,Calm,-,N/A,,Partly Cloudy,0,2013-06-16 02:15:00
10:35 PM,77.0,69.8,78,30.10,10.0,Calm,Calm,-,N/A,,Clear,0,2013-06-16 02:35:00
10:55 PM,77.0,69.8,78,30.10,9.0,Calm,Calm,-,N/A,,Scattered Clouds,0,2013-06-16 02:55:00
11:15 PM,77.0,71.6,83,30.11,8.0,Calm,Calm,-,N/A,,Mostly Cloudy,0,2013-06-16 03:15:00
11:35 PM,77.0,69.8,78,30.11,9.0,Calm,Calm,-,N/A,,Scattered Clouds,0,2013-06-16 03:35:00
11:55 PM,77.0,69.8,78,30.11,9.0,Calm,Calm,-,N/A,,Mostly Cloudy,0,2013-06-16 03:55:00